Location: Peach Mountain Observatory
(42.3967°N, 83.9367°W)
Time: 03:53:29
(UTC-05:00)

Altair - All Passes

Search period start: 25 January 2020 00:00
Search period end: 04 February 2020 00:00
Orbit: 1502 x 1682 km, 47.2° (Epoch: 24 January)

Date Brightness Start Highest point End Pass type
(mag) Time Alt. Az. Time Alt. Az. Time Alt. Az.
25 Jan - 06:41:44 10° SSE 06:48:21 20° SE 06:55:03 10° E visible
25 Jan - 08:41:52 10° SW 08:51:42 63° SE 09:01:41 10° ENE daylight
25 Jan - 10:46:31 10° W 10:56:40 74° NNW 11:06:51 10° ENE daylight
25 Jan - 12:52:16 10° WNW 13:02:30 71° N 13:12:31 10° E daylight
25 Jan - 14:57:32 10° WNW 15:07:36 69° SW 15:17:21 10° SE daylight
25 Jan - 17:03:45 10° W 17:11:05 24° SW 17:18:18 10° S daylight
26 Jan - 06:17:17 10° SSE 06:23:19 18° SE 06:29:25 10° E visible
26 Jan - 08:16:49 10° SW 08:26:32 59° SE 08:36:26 10° ENE daylight
26 Jan - 10:21:15 10° WSW 10:31:24 76° NNW 10:41:36 10° ENE daylight
26 Jan - 12:27:00 10° WNW 12:37:12 70° N 12:47:15 10° E daylight
26 Jan - 14:32:17 10° WNW 14:42:26 73° SSW 14:52:15 10° SE daylight
26 Jan - 16:38:17 10° WNW 16:46:03 26° SW 16:53:39 10° S daylight
27 Jan - 05:52:57 10° SSE 05:58:18 16° ESE 06:03:41 10° E visible
27 Jan - 07:51:47 10° SW 08:01:23 55° SE 08:11:11 10° ENE daylight
27 Jan - 09:56:00 10° WSW 10:06:08 78° NNW 10:16:22 10° ENE daylight
27 Jan - 12:01:45 10° WNW 12:11:55 69° N 12:22:00 10° E daylight
27 Jan - 14:07:03 10° WNW 14:17:13 77° SSW 14:27:08 10° SE daylight
27 Jan - 16:12:51 10° WNW 16:20:59 29° SW 16:28:56 10° S daylight
28 Jan - 05:28:49 10° SSE 05:33:17 14° ESE 05:37:47 10° E visible
28 Jan - 07:26:47 10° SSW 07:36:15 52° SE 07:45:56 10° ENE daylight
28 Jan - 09:30:46 10° WSW 09:40:53 80° NNW 09:51:08 10° ENE daylight
28 Jan - 11:36:29 10° WNW 11:46:38 68° N 11:56:43 10° E daylight
28 Jan - 13:41:49 10° WNW 13:52:02 81° SSW 14:02:00 10° SE daylight
28 Jan - 15:47:27 10° WNW 15:55:55 32° SW 16:04:10 10° S daylight
29 Jan - 05:05:00 10° SE 05:08:16 12° ESE 05:11:34 10° E visible
29 Jan - 07:01:49 10° SSW 07:11:07 48° SE 07:20:39 10° ENE visible
29 Jan - 09:05:32 10° WSW 09:15:38 83° NNW 09:25:53 10° ENE daylight
29 Jan - 11:11:12 10° W 11:21:21 68° N 11:31:27 10° E daylight
29 Jan - 13:16:36 10° WNW 13:26:49 85° SSW 13:36:50 10° ESE daylight
29 Jan - 15:22:06 10° WNW 15:30:50 35° SW 15:39:22 10° SSE daylight
30 Jan - 04:42:26 10° SE 04:43:16 10° ESE 04:44:05 10° ESE visible
30 Jan - 06:36:52 10° SSW 06:46:00 44° SE 06:55:22 10° ENE visible
30 Jan - 08:40:19 10° WSW 08:50:23 85° NNW 09:00:39 10° ENE daylight
30 Jan - 10:45:56 10° W 10:56:03 67° N 11:06:11 10° E daylight
30 Jan - 12:51:22 10° WNW 13:01:36 88° SSW 13:11:40 10° ESE daylight
30 Jan - 14:56:46 10° WNW 15:05:45 38° SW 15:14:31 10° SSE daylight
31 Jan - 06:11:57 10° SSW 06:20:54 41° SE 06:30:04 10° ENE visible
31 Jan - 08:15:07 10° WSW 08:25:09 88° NNW 08:35:24 10° ENE daylight
31 Jan - 10:20:40 10° W 10:30:46 67° N 10:40:54 10° E daylight
31 Jan - 12:26:08 10° WNW 12:36:23 89° NNE 12:46:28 10° ESE daylight
31 Jan - 14:31:27 10° WNW 14:40:39 41° SW 14:49:38 10° SSE daylight
01 Feb - 05:47:04 10° SSW 05:55:47 38° SE 06:04:45 10° ENE visible
01 Feb - 07:49:55 10° WSW 07:59:55 88° SSE 08:10:10 10° ENE daylight
01 Feb - 09:55:23 10° W 10:05:28 67° N 10:15:38 10° E daylight
01 Feb - 12:00:53 10° WNW 12:11:09 86° NNE 12:21:16 10° ESE daylight
01 Feb - 14:06:09 10° WNW 14:15:32 44° SW 14:24:43 10° SSE daylight
01 Feb - 16:17:35 10° WSW 16:18:17 10° WSW 16:18:58 10° WSW daylight
02 Feb - 05:22:13 10° SSW 05:30:42 35° SE 05:39:25 10° ENE visible
02 Feb - 07:24:45 10° WSW 07:34:42 85° SSE 07:44:56 10° ENE daylight
02 Feb - 09:30:07 10° W 09:40:11 68° N 09:50:21 10° E daylight
02 Feb - 11:35:39 10° WNW 11:45:54 83° NNE 11:56:03 10° ESE daylight
02 Feb - 13:40:52 10° WNW 13:50:24 48° SW 13:59:46 10° SSE daylight
02 Feb - 15:50:01 10° W 15:53:17 12° WSW 15:56:31 10° SW daylight
03 Feb - 04:57:26 10° S 05:05:38 32° SE 05:14:03 10° ENE visible
03 Feb - 06:59:36 10° SW 07:09:30 81° SSE 07:19:41 10° ENE visible
03 Feb - 09:04:51 10° W 09:14:53 68° N 09:25:04 10° ENE daylight
03 Feb - 11:10:25 10° WNW 11:20:39 80° NNE 11:30:49 10° ESE daylight
03 Feb - 13:15:36 10° WNW 13:25:16 51° SW 13:34:47 10° SSE daylight
03 Feb - 15:23:46 10° W 15:28:16 14° WSW 15:32:44 10° SSW daylight
